| time (UTC) | temp C | wind direction | speed KPH | gust KPH | rain 1hr cm | rain 24hr cm | rain mn cm | humidity % | barometer mb |
| 20260508064534 | 7 | 346 | 0.0 | 3.2 | 0.03 | 1.02 | 0.03 | 95 | 1014.9 |
| 20260508063016 | 7 | 346 | 0.0 | 0.0 | 0.03 | 1.02 | 0.03 | 95 | 1014.9 |
| 20260508061523 | 8 | 346 | 0.0 | 0.0 | 0.03 | 1.02 | 0.03 | 95 | 1014.9 |
| 20260508060023 | 8 | 346 | 0.0 | 3.2 | 0.03 | 1.02 | 0.03 | 95 | 1014.8 |
| 20260508054511 | 8 | 346 | 0.0 | 3.2 | 0.00 | 0.99 | 0.00 | 95 | 1014.7 |
| 20260508051516 | 8 | 346 | 0.0 | 3.2 | 0.00 | 0.99 | 0.00 | 95 | 1014.7 |
| 20260508050020 | 8 | 346 | 0.0 | 1.6 | 0.00 | 0.99 | 0.00 | 95 | 1014.6 |
| 20260508044522 | 8 | 346 | 0.0 | 3.2 | 0.00 | 0.99 | 0.00 | 95 | 1014.5 |
| 20260508043011 | 9 | 352 | 0.0 | 3.2 | 0.00 | 0.99 | 0.00 | 95 | 1014.2 |
| 20260508041516 | 9 | 68 | 0.0 | 0.0 | 0.00 | 0.99 | 0.00 | 95 | 1014.1 |
| 20260508040038 | 9 | 68 | 0.0 | 3.2 | 0.00 | 0.99 | 0.00 | 94 | 1014.2 |
| 20260508034536 | 9 | 68 | 0.0 | 0.0 | 0.00 | 0.99 | 0.99 | 94 | 1014.1 |
| 20260508033022 | 10 | 68 | 0.0 | 1.6 | 0.00 | 1.04 | 0.99 | 94 | 1014.1 |
| 20260508031519 | 10 | 68 | 0.0 | 0.0 | 0.00 | 1.12 | 0.99 | 94 | 1013.8 |
| 20260508030022 | 10 | 68 | 0.0 | 3.2 | 0.00 | 1.12 | 0.99 | 94 | 1013.8 |
| 20260508024525 | 10 | 68 | 0.0 | 0.0 | 0.00 | 1.14 | 0.99 | 94 | 1013.9 |
| 20260508023021 | 10 | 68 | 0.0 | 0.0 | 0.00 | 1.14 | 0.99 | 94 | 1013.4 |
| 20260508020014 | 11 | 68 | 0.0 | 0.0 | 0.00 | 1.19 | 0.99 | 93 | 1012.9 |
| 20260508014504 | 11 | 68 | 0.0 | 0.0 | 0.00 | 1.19 | 0.99 | 93 | 1012.8 |
| 20260508013005 | 12 | 68 | 0.0 | 1.6 | 0.00 | 1.19 | 0.99 | 93 | 1012.5 |
| 20260508011503 | 12 | 21 | 0.0 | 1.6 | 0.00 | 1.19 | 0.99 | 93 | 1012.2 |
| 20260508010004 | 12 | 21 | 0.0 | 0.0 | 0.00 | 1.22 | 0.99 | 93 | 1012.3 |
| 20260508004503 | 12 | 21 | 0.0 | 1.6 | 0.00 | 1.22 | 0.99 | 94 | 1012.1 |
| 20260508003004 | 13 | 21 | 0.0 | 1.6 | 0.00 | 1.22 | 0.99 | 93 | 1012.2 |
| 20260508001505 | 13 | 21 | 0.0 | 3.2 | 0.00 | 1.22 | 0.99 | 93 | 1012.3 |
| 20260508000006 | 13 | 21 | 0.0 | 3.2 | 0.00 | 1.22 | 0.99 | 93 | 1012.1 |
| 20260507234503 | 13 | 21 | 0.0 | 3.2 | 0.00 | 1.22 | 0.99 | 93 | 1011.8 |
| 20260507233004 | 13 | 21 | 0.0 | 0.0 | 0.00 | 1.22 | 0.99 | 93 | 1011.6 |
| 20260507231506 | 13 | 21 | 0.0 | 3.2 | 0.00 | 1.22 | 0.99 | 93 | 1011.2 |
| 20260507230013 | 13 | 61 | 0.0 | 4.8 | 0.00 | 1.22 | 0.99 | 93 | 1011.1 |
| 20260507223018 | 13 | 42 | 0.0 | 6.4 | 0.00 | 1.22 | 0.99 | 94 | 1011.0 |
| 20260507221529 | 13 | 244 | 0.0 | 4.8 | 0.00 | 1.22 | 0.99 | 92 | 1011.0 |
| 20260507220006 | 14 | 70 | 1.6 | 3.2 | 0.00 | 1.22 | 0.99 | 92 | 1010.7 |
| 20260507214509 | 14 | 55 | 0.0 | 3.2 | 0.00 | 1.22 | 0.99 | 92 | 1010.8 |
| 20260507213023 | 15 | 343 | 3.2 | 6.4 | 0.03 | 1.22 | 0.99 | 92 | 1010.7 |
| 20260507211520 | 14 | 34 | 0.0 | 3.2 | 0.08 | 1.22 | 0.99 | 95 | 1010.5 |
| 20260507210029 | 13 | 126 | 0.0 | 3.2 | 0.13 | 1.22 | 0.99 | 94 | 1010.7 |
| 20260507204508 | 13 | 38 | 0.0 | 4.8 | 0.20 | 1.22 | 0.99 | 94 | 1010.8 |
| 20260507203012 | 13 | 352 | 1.6 | 4.8 | 0.18 | 1.19 | 0.97 | 95 | 1010.4 |
| 20260507201517 | 13 | 352 | 1.6 | 4.8 | 0.13 | 1.14 | 0.91 | 93 | 1010.9 |
| 20260507200024 | 13 | 47 | 1.6 | 6.4 | 0.08 | 1.09 | 0.86 | 92 | 1010.8 |
| 20260507194511 | 13 | 49 | 0.0 | 3.2 | 0.00 | 1.02 | 0.79 | 92 | 1011.0 |
| 20260507193008 | 13 | 313 | 3.2 | 8.0 | 0.00 | 1.02 | 0.79 | 92 | 1010.5 |
| 20260507191504 | 13 | 82 | 1.6 | 12.9 | 0.00 | 1.02 | 0.79 | 91 | 1010.4 |
| 20260507190012 | 13 | 345 | 1.6 | 8.0 | 0.00 | 1.02 | 0.79 | 92 | 1010.7 |
| 20260507184504 | 14 | 67 | 1.6 | 9.7 | 0.00 | 1.02 | 0.79 | 92 | 1010.7 |
| 20260507183008 | 14 | 67 | 3.2 | 6.4 | 0.00 | 1.02 | 0.79 | 92 | 1010.9 |
| 20260507180012 | 15 | 123 | 0.0 | 9.7 | 0.00 | 1.02 | 0.79 | 94 | 1010.5 |
| 20260507174511 | 15 | 47 | 3.2 | 9.7 | 0.00 | 1.02 | 0.79 | 92 | 1011.0 |
| 20260507173017 | 15 | 31 | 1.6 | 6.4 | 0.00 | 1.02 | 0.79 | 93 | 1010.9 |
| 20260507171509 | 16 | 326 | 1.6 | 11.3 | 0.03 | 1.02 | 0.79 | 93 | 1010.9 |
| 20260507170016 | 16 | 304 | 1.6 | 4.8 | 0.03 | 1.02 | 0.79 | 93 | 1010.6 |
| 20260507164519 | 16 | 17 | 1.6 | 8.0 | 0.03 | 1.02 | 0.79 | 94 | 1010.1 |
| 20260507163008 | 17 | 51 | 1.6 | 4.8 | 0.03 | 1.02 | 0.79 | 95 | 1009.8 |
| 20260507161509 | 16 | 342 | 0.0 | 6.4 | 0.00 | 0.99 | 0.76 | 95 | 1010.2 |
| 20260507160007 | 16 | 92 | 0.0 | 6.4 | 0.00 | 0.99 | 0.76 | 94 | 1010.5 |
| 20260507153029 | 17 | 65 | 1.6 | 4.8 | 0.03 | 0.99 | 0.76 | 94 | 1010.8 |
| 20260507151524 | 17 | 44 | 1.6 | 3.2 | 0.03 | 0.99 | 0.76 | 95 | 1011.0 |
| 20260507150011 | 17 | 317 | 1.6 | 3.2 | 0.03 | 0.99 | 0.76 | 96 | 1010.8 |
| 20260507144518 | 17 | 30 | 0.0 | 3.2 | 0.10 | 0.99 | 0.76 | 96 | 1010.3 |
| 20260507143026 | 17 | 41 | 0.0 | 3.2 | 0.18 | 0.97 | 0.74 | 96 | 1010.3 |
| 20260507141526 | 17 | 286 | 0.0 | 3.2 | 0.23 | 0.97 | 0.74 | 96 | 1010.3 |
| 20260507140027 | 17 | 155 | 0.0 | 3.2 | 0.30 | 0.97 | 0.74 | 96 | 1010.3 |
| 20260507134514 | 17 | 225 | 0.0 | 3.2 | 0.38 | 0.89 | 0.66 | 96 | 1010.0 |
| 20260507133024 | 17 | 225 | 0.0 | 3.2 | 0.33 | 0.79 | 0.56 | 96 | 1010.0 |
| 20260507131515 | 17 | 225 | 0.0 | 3.2 | 0.30 | 0.74 | 0.51 | 95 | 1010.6 |
| 20260507130006 | 17 | 241 | 0.0 | 3.2 | 0.28 | 0.66 | 0.43 | 95 | 1011.2 |
| 20260507124516 | 17 | 294 | 0.0 | 0.0 | 0.15 | 0.51 | 0.28 | 95 | 1011.5 |
| 20260507121508 | 17 | 311 | 0.0 | 3.2 | 0.10 | 0.43 | 0.20 | 96 | 1011.0 |
| 20260507120008 | 17 | 325 | 0.0 | 3.2 | 0.05 | 0.38 | 0.15 | 96 | 1011.2 |
| 20260507114510 | 17 | 309 | 0.0 | 3.2 | 0.03 | 0.36 | 0.13 | 96 | 1011.0 |
| 20260507113032 | 17 | 103 | 0.0 | 3.2 | 0.00 | 0.33 | 0.10 | 95 | 1010.7 |
| 20260507111512 | 17 | 18 | 0.0 | 0.0 | 0.00 | 0.33 | 0.10 | 95 | 1010.7 |
| 20260507110011 | 17 | 52 | 0.0 | 0.0 | 0.00 | 0.33 | 0.10 | 95 | 1010.9 |
| 20260507104509 | 17 | 335 | 0.0 | 0.0 | 0.03 | 0.33 | 0.10 | 95 | 1010.6 |
| 20260507103019 | 17 | 184 | 0.0 | 0.0 | 0.03 | 0.33 | 0.10 | 95 | 1010.4 |
| 20260507101517 | 17 | 144 | 0.0 | 3.2 | 0.03 | 0.33 | 0.10 | 95 | 1010.5 |
| 20260507100016 | 17 | 93 | 0.0 | 3.2 | 0.03 | 0.33 | 0.10 | 95 | 1010.5 |
| 20260507094507 | 17 | 89 | 0.0 | 3.2 | 0.00 | 0.30 | 0.08 | 95 | 1010.8 |
| 20260507093012 | 17 | 88 | 0.0 | 3.2 | 0.00 | 0.30 | 0.08 | 95 | 1010.4 |
| 20260507091514 | 17 | 301 | 1.6 | 3.2 | 0.00 | 0.30 | 0.08 | 95 | 1011.0 |
| 20260507090016 | 17 | 290 | 0.0 | 3.2 | 0.03 | 0.30 | 0.08 | 95 | 1010.9 |
| 20260507084517 | 17 | 290 | 0.0 | 3.2 | 0.03 | 0.30 | 0.08 | 95 | 1010.0 |
| 20260507083012 | 17 | 32 | 0.0 | 3.2 | 0.05 | 0.30 | 0.08 | 95 | 1010.2 |
| 20260507081520 | 17 | 331 | 0.0 | 3.2 | 0.05 | 0.30 | 0.08 | 95 | 1010.3 |
| 20260507080015 | 17 | 169 | 0.0 | 3.2 | 0.05 | 0.28 | 0.05 | 95 | 1010.2 |
| 20260507073017 | 17 | 247 | 0.0 | 3.2 | 0.03 | 0.25 | 0.03 | 95 | 1011.2 |
| 20260507071512 | 17 | 162 | 0.0 | 3.2 | 0.03 | 0.25 | 0.03 | 94 | 1011.1 |
| 20260507070016 | 17 | 5 | 0.0 | 3.2 | 0.00 | 0.23 | 0.00 | 94 | 1011.3 |